When you browse on this site, cookies collect data to enhance your experience and personalize the content and advertising you see.
Visit our Privacy Policy to learn more. By continuing to use the site, you agree to this use of cookies and data.
  • In Portugal
  • List of Countries
  • For 7 days
  • Water Temperature
  • Satellite Maps
  • Weather Map
  • Weather Widgets
  • user-avatar
    Login

    Hourly Weather Roslavka

    Today, 19 April, Friday

    Time Temperature Precipitation Wind Pressure Humidity
    00:00 +1°C° 0 mm 2 mps 744 mmHg 49%
    01:00 +1°C° 0 mm 2 mps 745 mmHg 48%
    02:00 +1°C° 0 mm 2 mps 745 mmHg 46%
    03:00 +1°C° 0 mm 1 mps 745 mmHg 49%
    04:00 -1°C° 0 mm 2 mps 745 mmHg 48%
    05:00 -1°C° 0 mm 2 mps 745 mmHg 46%
    06:00 -1°C° 0 mm 2 mps 745 mmHg 44%
    07:00 0°C° 0 mm 4 mps 745 mmHg 36%
    08:00 +2°C° 0 mm 5 mps 745 mmHg 29%
    09:00 +4°C° 0 mm 6 mps 745 mmHg 20%
    10:00 +5°C° 0 mm 7 mps 745 mmHg 19%
    11:00 +5°C° 0 mm 7 mps 745 mmHg 18%
    12:00 +6°C° 0 mm 7 mps 745 mmHg 16%
    13:00 +6°C° 0 mm 7 mps 744 mmHg 16%
    14:00 +8°C° 0 mm 7 mps 744 mmHg 16%
    15:00 +8°C° 0 mm 6 mps 744 mmHg 15%
    16:00 +8°C° 0 mm 6 mps 744 mmHg 16%
    17:00 +7°C° 0 mm 5 mps 744 mmHg 17%
    18:00 +7°C° 0 mm 4 mps 745 mmHg 18%
    19:00 +5°C° 0 mm 3 mps 745 mmHg 22%
    20:00 +5°C° 0 mm 2 mps 745 mmHg 25%
    21:00 +3°C° 0 mm 2 mps 746 mmHg 29%
    22:00 +4°C° 0 mm 1 mps 746 mmHg 32%
    23:00 +3°C° 0 mm 1 mps 746 mmHg 34%

    Tomorrow, 20 April, Saturday

    Time Temperature Precipitation Wind Pressure Humidity
    00:00 +2°C° 0 mm 1 mps 746 mmHg 36%
    01:00 +2°C° 0 mm 1 mps 747 mmHg 37%
    02:00 +1°C° 0 mm 1 mps 747 mmHg 38%
    03:00 +1°C° 0 mm 1 mps 747 mmHg 39%
    04:00 +1°C° 0 mm 1 mps 747 mmHg 39%
    05:00 +1°C° 0 mm 1 mps 747 mmHg 39%
    06:00 +1°C° 0 mm 1 mps 747 mmHg 38%
    07:00 +4°C° 0 mm 1 mps 747 mmHg 33%
    08:00 +7°C° 0 mm 1 mps 747 mmHg 27%
    09:00 +9°C° 0 mm 1 mps 746 mmHg 21%
    10:00 +11°C° 0 mm 1 mps 746 mmHg 20%
    11:00 +13°C° 0 mm 1 mps 745 mmHg 18%
    12:00 +15°C° 0 mm 1 mps 745 mmHg 17%
    13:00 +15°C° 0 mm 2 mps 744 mmHg 16%
    14:00 +16°C° 0 mm 2 mps 744 mmHg 16%
    15:00 +16°C° 0 mm 2 mps 743 mmHg 15%
    16:00 +15°C° 0 mm 1 mps 743 mmHg 19%
    17:00 +14°C° 0 mm 1 mps 743 mmHg 23%
    18:00 +13°C° 0 mm 1 mps 742 mmHg 26%
    19:00 +12°C° 0 mm 1 mps 742 mmHg 30%
    20:00 +10°C° 0 mm 1 mps 742 mmHg 33%
    21:00 +8°C° 0 mm 2 mps 742 mmHg 36%
    22:00 +8°C° 0 mm 2 mps 743 mmHg 38%
    23:00 +8°C° 0 mm 2 mps 743 mmHg 40%

    Day after tomorrow, 21 April, Sunday

    Time Temperature Precipitation Wind Pressure Humidity
    00:00 +7°C° 0 mm 2 mps 743 mmHg 42%
    01:00 +7°C° 0 mm 2 mps 743 mmHg 48%
    02:00 +8°C° 0 mm 2 mps 743 mmHg 54%
    03:00 +8°C° 0 mm 2 mps 744 mmHg 61%
    04:00 +7°C° 0 mm 2 mps 744 mmHg 61%
    05:00 +6°C° 0 mm 2 mps 744 mmHg 62%
    06:00 +6°C° 0 mm 1 mps 745 mmHg 63%
    07:00 +7°C° 0 mm 2 mps 745 mmHg 51%
    08:00 +8°C° 0 mm 3 mps 745 mmHg 38%
    09:00 +10°C° 0 mm 3 mps 746 mmHg 26%
    10:00 +11°C° 0 mm 3 mps 745 mmHg 23%
    11:00 +12°C° 0 mm 4 mps 745 mmHg 21%
    12:00 +13°C° 0 mm 4 mps 745 mmHg 18%
    13:00 +14°C° 0 mm 4 mps 745 mmHg 17%
    14:00 +14°C° 0 mm 4 mps 745 mmHg 17%
    15:00 +14°C° 0 mm 4 mps 744 mmHg 16%
    16:00 +13°C° 0 mm 4 mps 744 mmHg 17%
    17:00 +13°C° 0 mm 3 mps 745 mmHg 19%
    18:00 +13°C° 0 mm 2 mps 745 mmHg 20%
    19:00 +10°C° 0 mm 2 mps 745 mmHg 22%
    20:00 +10°C° 0 mm 1 mps 746 mmHg 24%
    21:00 +8°C° 0 mm 1 mps 747 mmHg 27%
    22:00 +7°C° 0 mm 1 mps 747 mmHg 28%
    23:00 +7°C° 0 mm 1 mps 747 mmHg 29%

    22 April, Monday

    Time Temperature Precipitation Wind Pressure Humidity
    00:00 +6°C° 0 mm 1 mps 747 mmHg 31%
    01:00 +6°C° 0 mm 1 mps 748 mmHg 33%
    02:00 +5°C° 0 mm 1 mps 748 mmHg 35%
    03:00 +5°C° 0 mm 1 mps 748 mmHg 37%
    04:00 +4°C° 0 mm 1 mps 748 mmHg 38%
    05:00 +4°C° 0 mm 1 mps 748 mmHg 40%
    06:00 +4°C° 0 mm 1 mps 748 mmHg 41%
    07:00 +7°C° 0 mm 1 mps 748 mmHg 35%
    08:00 +10°C° 0 mm 1 mps 748 mmHg 28%
    09:00 +13°C° 0 mm 1 mps 748 mmHg 22%
    10:00 +15°C° 0 mm 2 mps 748 mmHg 19%
    11:00 +17°C° 0 mm 2 mps 747 mmHg 17%
    12:00 +18°C° 0 mm 2 mps 747 mmHg 14%
    13:00 +18°C° 0 mm 3 mps 746 mmHg 14%
    14:00 +18°C° 0 mm 3 mps 746 mmHg 15%
    15:00 +19°C° 0 mm 3 mps 745 mmHg 15%
    16:00 +17°C° 0.1 mm 3 mps 745 mmHg 24%
    17:00 +14°C° 0.1 mm 3 mps 745 mmHg 33%
    18:00 +12°C° 0.1 mm 3 mps 744 mmHg 42%
    19:00 +11°C° 0 mm 3 mps 744 mmHg 46%
    20:00 +11°C° 0 mm 3 mps 744 mmHg 49%
    21:00 +10°C° 0 mm 3 mps 744 mmHg 52%
    22:00 +10°C° 0 mm 3 mps 743 mmHg 48%
    23:00 +9°C° 0 mm 3 mps 743 mmHg 44%

    23 April, Tuesday

    Time Temperature Precipitation Wind Pressure Humidity
    00:00 +9°C° 0 mm 3 mps 742 mmHg 40%
    01:00 +8°C° 0.1 mm 4 mps 742 mmHg 45%
    02:00 +10°C° 0.1 mm 4 mps 741 mmHg 50%
    03:00 +10°C° 0.1 mm 4 mps 741 mmHg 55%
    04:00 +10°C° 0 mm 4 mps 741 mmHg 60%
    05:00 +10°C° 0 mm 3 mps 741 mmHg 65%
    06:00 +9°C° 0 mm 3 mps 741 mmHg 70%
    07:00 +11°C° 0 mm 3 mps 741 mmHg 64%
    08:00 +13°C° 0 mm 4 mps 741 mmHg 58%
    09:00 +15°C° 0 mm 4 mps 741 mmHg 52%
    10:00 +17°C° 0 mm 5 mps 741 mmHg 48%
    11:00 +19°C° 0 mm 5 mps 741 mmHg 45%
    12:00 +21°C° 0 mm 5 mps 741 mmHg 41%
    13:00 +21°C° 0 mm 5 mps 741 mmHg 37%
    14:00 +21°C° 0 mm 5 mps 741 mmHg 32%
    15:00 +21°C° 0 mm 5 mps 741 mmHg 28%
    16:00 +20°C° 0 mm 5 mps 742 mmHg 29%
    17:00 +19°C° 0 mm 4 mps 742 mmHg 30%
    18:00 +18°C° 0 mm 3 mps 743 mmHg 31%
    19:00 +16°C° 0 mm 2 mps 743 mmHg 35%
    20:00 +14°C° 0 mm 2 mps 744 mmHg 39%
    21:00 +12°C° 0 mm 1 mps 745 mmHg 43%
    22:00 +11°C° 0 mm 1 mps 745 mmHg 46%
    23:00 +11°C° 0 mm 1 mps 745 mmHg 49%

    24 April, Wednesday

    Time Temperature Precipitation Wind Pressure Humidity
    00:00 +10°C° 0 mm 1 mps 746 mmHg 51%
    01:00 +10°C° 0 mm 1 mps 746 mmHg 53%
    02:00 +9°C° 0 mm 1 mps 746 mmHg 55%
    03:00 +9°C° 0 mm 1 mps 746 mmHg 57%
    04:00 +9°C° 0 mm 1 mps 746 mmHg 56%
    05:00 +9°C° 0 mm 1 mps 746 mmHg 54%
    06:00 +10°C° 0 mm 1 mps 747 mmHg 53%
    07:00 +10°C° 0.1 mm 1 mps 747 mmHg 55%
    08:00 +9°C° 0.1 mm 0 mps 747 mmHg 57%
    09:00 +9°C° 0.1 mm 0 mps 747 mmHg 59%
    10:00 +11°C° 0.1 mm 1 mps 747 mmHg 58%
    11:00 +11°C° 0.1 mm 1 mps 746 mmHg 56%
    12:00 +10°C° 0.1 mm 2 mps 746 mmHg 55%
    13:00 +10°C° 0.1 mm 2 mps 746 mmHg 57%
    14:00 +9°C° 0.1 mm 3 mps 745 mmHg 60%
    15:00 +9°C° 0.1 mm 3 mps 745 mmHg 62%
    16:00 +8°C° 0.4 mm 2 mps 745 mmHg 68%
    17:00 +7°C° 0.4 mm 2 mps 745 mmHg 74%
    18:00 +7°C° 0.4 mm 2 mps 745 mmHg 80%
    19:00 +6°C° 0.3 mm 2 mps 745 mmHg 83%
    20:00 +6°C° 0.3 mm 2 mps 745 mmHg 85%
    21:00 +6°C° 0.3 mm 2 mps 745 mmHg 87%
    22:00 +6°C° 0.2 mm 2 mps 745 mmHg 87%
    23:00 +5°C° 0.2 mm 2 mps 745 mmHg 87%
    Show more